Regional Weather Roundup
Issued by NWS Burlington, VT

Home | Current Version | Previous Version | Text Only | Print | Product List | Glossary On
Versions: 1 2 3 4 5 6 7 8 9 10 11 12 13 14 15 16 17 18 19 20 21 22 23 24 25 26 27 28 29 30 31 32 33 34 35 36 37 38 39 40 41 42 43 44 45 46 47 48 49 50
592
ASUS41 KBTV 210830
RWRBTV
VERMONT REGIONAL WEATHER ROUNDUP
NATIONAL WEATHER SERVICE BURLINGTON VT
300 AM EST TUE NOV 21 2017

NOTE: "FAIR" INDICATES FEW OR NO CLOUDS BELOW 12,000 FEET WITH NO
SIGNIFICANT WEATHER AND/OR OBSTRUCTIONS TO VISIBILITY.

* THESE REPORTS ARE NOT UNDER NWS QUALITY CONTROL AND/OR DO NOT
  REPORT WEATHER SUCH AS PRECIPITATION AND FOG.

VTZ001>019-210900-
_____VERMONT_____


CITY           SKY/WX    TMP DP  RH WIND       PRES   REMARKS
BURLINGTON     CLOUDY    34  29  82 S10       29.95F WCI  26
MONTPELIER     MOCLDY    21  21 100 CALM      29.99F
MORRISVILLE    CLOUDY    22  18  85 CALM      29.97F
ST. JOHNSBURY*   N/A     24  19  81 MISG      29.99F
LYNDONVILLE*   CLOUDY    22  17  82 S3        29.98F
MIDDLEBURY*    FAIR      35  28  74 S8G17     29.98S WCI  29
RUTLAND*       CLEAR     31  27  85 CALM      30.00R
SPRINGFIELD    CLEAR     29  27  92 CALM      30.02S
HIGHGATE*      CLOUDY    28  25  87 S5        29.92F WCI  23
NEWPORT*       CLOUDY    22  18  83 S8        29.95F WCI  13
BENNINGTON     CLEAR     27  23  85 CALM      30.01S
SUTTON*          N/A     19 N/A N/A MISG        N/A
ISLAND POND*     N/A     18 N/A N/A CALM        N/A
GALLUP MILLS*    N/A     19 N/A N/A MISG        N/A
UNION VILLAGE*   N/A     27 N/A N/A MISG        N/A

_____LAKE CHAMPLAIN_____


CITY           SKY/WX    TMP DP  RH WIND       PRES   REMARKS
BURTON ISLAND*   N/A     34  32  93 S21G29      N/A  WCI  22
COLCHESTER RF*   N/A     34  32  93 S26         N/A  WCI  21
DIAMOND ISL*     N/A     32  30  93 S9G15       N/A  WCI  24

$$

NYZ007-026>031-035-052-083-087-210900-
_____NORTHERN NEW YORK_____


CITY           SKY/WX    TMP DP  RH WIND       PRES   REMARKS
PLATTSBURGH    CLOUDY    29  24  82 CALM      29.94F
SARANAC LAKE   CLEAR     24  24 100 MISG      29.86S
MASSENA        CLOUDY    25  25 100 E3        29.88F
OGDENSBURG*    FAIR      33  29  86 S8        29.84F WCI  26
POTSDAM*       CLEAR     36  30  80 S8        29.85F WCI  29
WATERTOWN      CLEAR     37  27  67 VRB7      29.87F WCI  32
FT DRUM        CLEAR     35  25  67 S15       29.86S WCI  25
ALBANY         CLEAR     34  24  67 S10       30.03F WCI  26
GLENS FALLS    CLEAR     31  28  89 S6        30.01S WCI  25

$$
NHZ002-005-011-210900-
_____NEW HAMPSHIRE_____


CITY           SKY/WX    TMP DP  RH WIND       PRES   REMARKS
LEBANON        CLEAR     26  23  88 CALM      30.01S
MT WASHINGTON  BLWGSNOW  16  16 100 W59G67      N/A  VSB 1/16WCI -10
PLYMOUTH       CLOUDY    29  23  76 CALM      30.03F
WHITEFIELD     CLOUDY    24  18  77 CALM      29.97F

$$

_____REGIONAL QUEBEC LOCATIONS_____


CITY           SKY/WX    TMP DP  RH WIND       PRES   REMARKS
MONTREAL       CLOUDY    27  21  80 E8        29.90F WCI  18
QUEBEC CITY    PTCLDY    12   7  79 CALM      29.98S
SHERBROOKE     CLOUDY    12   9  85 E5        29.96F WCI   4

_____REGIONAL ONTARIO LOCATIONS_____


CITY           SKY/WX    TMP DP  RH WIND       PRES   REMARKS
OTTAWA         PTCLDY    23  21  93 E9        29.83F WCI  13

______KEY______
VSB  - VISIBILITY IN MILES
WCI  - WIND CHILL INDEX
HX   - HEAT INDEX
$$
NNNN




USA.gov is the U.S. government's official web portal to all federal, state and local government web resources and services.